FW1095 Weather Reports


Display with metric or nautical units.
time (UTC)temp
F
wind
direction
speed
MPH
gust
MPH
rain 1hr
in
rain 24hr
in
rain mn
in
humidity
%
barometer
mb
20260502164038 38 324 7.0 11.0 0.00 0.00 0.00 81 1016.2
20260502163527 38 324 9.0 11.0 0.00 0.00 0.00 80 1016.2
20260502163016 38 331 8.0 12.0 0.00 0.00 0.00 81 1016.3
20260502163003 38 329 9.0 13.0 0.00 0.00 0.00 81 1015.8
20260502162516 38 333 9.0 13.0 0.00 0.00 0.00 82 1016.3
20260502162016 38 326 9.0 13.0 0.00 0.00 0.00 82 1016.4
20260502161539 38 315 10.0 13.0 0.00 0.00 0.00 82 1016.4
20260502161503 38 338 11.0 14.0 0.00 0.00 0.00 82 1016.4
20260502161016 38 322 10.0 13.0 0.00 0.00 0.00 81 1016.4
20260502160516 38 297 8.0 13.0 0.00 0.00 0.00 83 1016.4
20260502152039 39 327 9.0 14.0 0.00 0.00 0.00 80 1016.5
20260502151516 38 327 8.0 13.0 0.00 0.00 0.00 82 1016.5
20260502151503 38 330 8.0 14.0 0.00 0.00 0.00 81 1015.2
20260502151038 38 317 10.0 13.0 0.00 0.00 0.00 81 1016.4
20260502130516 37 248 9.0 13.0 0.00 0.00 0.00 72 1017.1
20260502123016 36 259 10.0 14.0 0.00 0.00 0.00 73 1017.3
20260502123012 36 265 10.0 15.0 0.00 0.00 0.00 73 1016.5
20260502122539 36 271 11.0 15.0 0.00 0.00 0.00 74 1017.3
20260502122016 36 275 11.0 16.0 0.00 0.00 0.00 74 1017.3
20260502121532 35 271 10.0 17.0 0.00 0.00 0.00 74 1016.4
20260502121517 35 263 10.0 16.0 0.00 0.00 0.00 74 1017.3
20260502121039 35 267 10.0 16.0 0.00 0.00 0.00 74 1017.2
20260502120516 35 245 7.0 16.0 0.00 0.00 0.00 75 1017.2
20260502115528 34 254 11.0 15.0 0.00 0.00 0.00 75 1017.3
20260502115017 34 244 9.0 15.0 0.00 0.00 0.00 75 1017.2
20260502114511 34 257 10.0 17.0 0.00 0.00 0.00 75 1016.4
20260502114039 34 263 8.0 16.0 0.00 0.00 0.00 76 1017.2
20260502113017 33 257 8.0 12.0 0.00 0.00 0.00 77 1017.0
20260502113008 33 265 9.0 13.0 0.00 0.00 0.00 77 1016.4
20260502112017 32 258 7.0 12.0 0.00 0.00 0.00 78 1016.9
20260502111517 32 253 7.0 10.0 0.00 0.00 0.00 78 1016.9
20260502111512 32 257 6.0 11.0 0.00 0.00 0.00 78 1016.4
20260502111017 32 242 6.0 9.0 0.00 0.00 0.00 78 1016.9
20260502110550 32 265 4.0 9.0 0.00 0.00 0.00 79 1016.9
20260502110017 32 242 6.0 9.0 0.00 0.00 0.00 79 1016.9
20260502110003 32 240 6.0 10.0 0.00 0.00 0.00 78 1016.3
20260502105017 32 236 5.0 9.0 0.00 0.00 0.00 78 1016.8
20260502104516 32 227 6.0 9.0 0.00 0.00 0.00 78 1016.9
20260502104504 32 267 6.0 10.0 0.00 0.00 0.00 78 1016.1
20260502104050 32 238 6.0 10.0 0.00 0.00 0.00 78 1016.9
20260502103539 32 229 6.0 10.0 0.00 0.00 0.00 78 1017.0
20260502103017 32 249 6.0 11.0 0.00 0.00 0.00 78 1017.0
20260502103007 32 249 6.0 12.0 0.00 0.00 0.00 77 1015.5
20260502102527 32 240 6.0 11.0 0.00 0.00 0.00 78 1016.9
20260502102017 32 240 6.0 10.0 0.00 0.00 0.00 78 1016.9
20260502101517 31 248 5.0 9.0 0.00 0.00 0.00 78 1016.8
20260502101512 31 261 5.0 10.0 0.00 0.00 0.00 77 1015.5
20260502101017 31 245 6.0 12.0 0.00 0.00 0.00 78 1017.0
20260502100517 31 238 6.0 12.0 0.00 0.00 0.00 78 1016.9
20260502091509 32 258 5.0 10.0 0.00 0.00 0.00 77 1016.1
20260502091050 32 244 6.0 9.0 0.00 0.00 0.00 78 1016.8
20260502090528 31 246 6.0 9.0 0.00 0.00 0.00 78 1016.8
20260502071503 33 241 4.0 10.0 0.00 0.01 0.00 76 1015.8
20260502071017 33 229 5.0 7.0 0.00 0.01 0.00 77 1016.7
20260502070539 33 240 5.0 7.0 0.00 0.01 0.00 77 1016.7
20260502070017 33 242 3.0 7.0 0.00 0.01 0.00 76 1015.3
20260502065517 33 240 3.0 6.0 0.00 0.01 0.00 76 1016.8
20260502064550 34 257 4.0 7.0 0.00 0.01 0.00 76 1016.9
20260502064510 34 263 3.0 9.0 0.00 0.01 0.00 75 1015.5
20260502063528 34 259 4.0 8.0 0.00 0.01 0.00 75 1016.9
20260502063028 34 252 5.0 8.0 0.00 0.01 0.00 75 1016.9
20260502063024 34 256 5.0 10.0 0.00 0.01 0.00 74 1015.8
20260502062517 34 228 6.0 9.0 0.00 0.01 0.00 74 1017.0
20260502061550 35 257 4.0 8.0 0.00 0.01 0.00 75 1016.9
20260502061514 35 259 4.0 9.0 0.00 0.01 0.00 74 1016.1
20260502061039 35 275 5.0 10.0 0.00 0.01 0.00 74 1017.0
20260502060517 35 265 7.0 10.0 0.00 0.01 0.00 74 1016.9
20260502060050 35 243 6.0 10.0 0.00 0.01 0.00 73 1016.9
20260502060004 35 251 6.0 13.0 0.00 0.01 0.00 73 1016.4
20260502055517 35 262 7.0 12.0 0.00 0.01 0.00 73 1017.0
20260502054550 35 312 10.0 16.0 0.00 0.01 0.00 75 1017.0
20260502054506 35 304 10.0 15.0 0.00 0.01 0.00 74 1016.3
20260502054017 36 275 7.0 16.0 0.00 0.01 0.00 75 1017.0
20260502053539 36 271 11.0 17.0 0.00 0.01 0.00 75 1016.9
20260502053017 36 299 12.0 17.0 0.00 0.01 0.00 75 1016.9
20260502053011 36 300 12.0 18.0 0.00 0.01 0.00 74 1016.2
20260502052517 36 285 11.0 16.0 0.00 0.01 0.00 76 1016.9
20260502052039 36 283 12.0 17.0 0.00 0.01 0.00 74 1017.0
20260502051540 36 302 13.0 17.0 0.00 0.01 0.00 74 1016.9
20260502051515 36 296 14.0 18.0 0.00 0.01 0.00 74 1016.0
20260502050539 36 307 11.0 16.0 0.00 0.01 0.00 77 1016.9
20260502050032 36 306 11.0 15.0 0.00 0.01 0.00 76 1016.9
20260502050016 36 294 11.0 17.0 0.00 0.01 0.00 75 1015.3
20260502045517 36 306 9.0 16.0 0.00 0.01 0.00 77 1016.9
20260502045017 36 297 11.0 16.0 0.00 0.01 0.00 76 1016.9
20260502044528 36 286 10.0 16.0 0.00 0.01 0.00 76 1016.9
20260502044506 36 286 11.0 17.0 0.00 0.01 0.00 75 1015.5
20260502044050 36 300 12.0 16.0 0.00 0.01 0.00 75 1016.9
20260502043517 36 286 11.0 15.0 0.00 0.01 0.00 75 1016.9
20260502043017 36 330 11.0 16.0 0.00 0.01 0.00 74 1016.9
20260502043008 36 291 12.0 17.0 0.00 0.01 0.00 74 1015.6
20260502042517 36 283 11.0 16.0 0.00 0.01 0.00 76 1016.9
20260502042051 36 275 12.0 16.0 0.00 0.01 0.00 75 1016.9
20260502041539 36 297 9.0 14.0 0.00 0.01 0.00 76 1016.9
20260502041516 36 288 10.0 15.0 0.00 0.01 0.00 75 1016.0
20260502041017 36 296 11.0 14.0 0.00 0.01 0.00 75 1016.9
20260502040517 36 294 11.0 14.0 0.00 0.01 0.00 75 1016.9
20260502040019 36 285 10.0 16.0 0.00 0.01 0.00 75 1016.4
20260502040017 36 276 9.0 14.0 0.00 0.01 0.00 76 1016.9
20260502035517 36 287 11.0 15.0 0.00 0.01 0.01 75 1016.9
20260502034520 36 312 9.0 16.0 0.00 0.01 0.01 76 1016.4
20260502034517 36 300 9.0 15.0 0.00 0.01 0.01 76 1016.9
20260502034039 36 305 10.0 16.0 0.00 0.01 0.01 76 1016.9
20260502033517 36 307 12.0 18.0 0.00 0.01 0.01 75 1017.0
20260502033039 36 310 12.0 18.0 0.00 0.01 0.01 75 1017.0
20260502033004 36 317 12.0 19.0 0.00 0.01 0.01 75 1016.3
20260502032528 36 332 11.0 17.0 0.00 0.01 0.01 76 1016.9
20260502032017 36 303 12.0 16.0 0.00 0.01 0.01 75 1017.0
20260502031517 36 304 10.0 14.0 0.00 0.01 0.01 77 1016.9
20260502031510 36 315 10.0 15.0 0.00 0.01 0.01 76 1016.1
20260502031018 36 309 10.0 14.0 0.00 0.01 0.01 77 1016.9
20260502030517 36 294 10.0 13.0 0.00 0.01 0.01 78 1016.9
20260502030050 36 303 9.0 14.0 0.00 0.01 0.01 78 1017.0
20260502030014 36 309 9.0 15.0 0.00 0.01 0.01 78 1015.7
20260502025528 36 290 10.0 14.0 0.00 0.01 0.01 78 1016.9
20260502025028 36 310 9.0 13.0 0.00 0.01 0.01 78 1017.0
20260502024539 36 299 9.0 13.0 0.00 0.01 0.01 77 1017.0
20260502024521 36 293 9.0 14.0 0.00 0.01 0.01 77 1015.6
20260502024017 36 301 9.0 13.0 0.00 0.01 0.01 77 1017.0
20260502023021 36 276 11.0 16.0 0.00 0.01 0.01 75 1015.8
20260502023017 36 257 10.0 15.0 0.00 0.01 0.01 75 1017.0
20260502022028 37 289 10.0 16.0 0.00 0.01 0.01 74 1017.0
20260502021517 37 290 10.0 15.0 0.00 0.01 0.01 75 1016.9
20260502021514 37 290 11.0 16.0 0.00 0.01 0.01 74 1015.9
20260502021017 37 288 10.0 15.0 0.00 0.01 0.01 75 1016.9
20260502020540 37 302 10.0 13.0 0.00 0.01 0.01 75 1016.9
20260502020003 37 287 9.0 13.0 0.00 0.01 0.01 77 1016.2
20260502015518 37 294 9.0 12.0 0.00 0.01 0.01 77 1017.0
20260502015017 37 309 8.0 12.0 0.00 0.01 0.01 77 1016.9
20260502014517 36 308 9.0 12.0 0.00 0.01 0.01 78 1016.9
20260502014505 36 286 9.0 13.0 0.00 0.01 0.01 77 1016.3
20260502014017 36 300 9.0 11.0 0.00 0.01 0.01 79 1016.9
20260502013539 36 294 9.0 11.0 0.00 0.01 0.01 78 1016.8
20260502013018 36 298 7.0 10.0 0.00 0.01 0.01 79 1016.8
20260502013003 36 292 7.0 11.0 0.00 0.01 0.01 78 1016.2
20260502012039 36 309 7.0 11.0 0.00 0.01 0.01 79 1016.7
20260502011529 36 309 7.0 9.0 0.00 0.01 0.01 78 1016.7
20260502011506 36 293 7.0 10.0 0.00 0.01 0.01 77 1015.8
20260502011018 37 311 7.0 9.0 0.00 0.01 0.01 77 1016.7
20260502010540 37 304 6.0 10.0 0.00 0.01 0.01 77 1016.7
20260502010040 37 279 7.0 10.0 0.00 0.01 0.01 75 1016.6
20260502010004 37 302 7.0 11.0 0.00 0.01 0.01 74 1015.2
20260502005517 37 285 7.0 10.0 0.00 0.01 0.01 74 1016.5
20260502005040 37 291 6.0 12.0 0.00 0.01 0.01 75 1016.5
20260502004518 37 294 9.0 12.0 0.00 0.01 0.01 74 1016.4
20260502004506 37 304 9.0 13.0 0.00 0.01 0.01 73 1015.2
20260502004040 37 291 8.0 12.0 0.00 0.01 0.01 73 1016.4
20260502003540 37 288 10.0 12.0 0.00 0.01 0.01 73 1016.4
20260502003017 38 306 9.0 12.0 0.00 0.01 0.01 73 1016.4
20260502003006 38 298 9.0 13.0 0.00 0.01 0.01 72 1015.2
20260502002540 38 295 9.0 14.0 0.00 0.01 0.01 72 1016.3
20260502002039 38 318 10.0 14.0 0.00 0.01 0.01 72 1016.3
20260502001518 38 296 11.0 14.0 0.00 0.01 0.01 71 1016.3
20260502001504 38 306 11.0 15.0 0.00 0.01 0.01 70 1015.3
20260502001040 38 281 11.0 15.0 0.00 0.01 0.01 71 1016.2
20260502000517 38 309 11.0 16.0 0.00 0.01 0.01 70 1016.2
20260502000008 38 287 12.0 17.0 0.00 0.01 0.01 69 1015.6
20260501235518 38 282 12.0 15.0 0.00 0.01 0.01 71 1016.1
20260501235041 38 314 9.0 13.0 0.00 0.01 0.01 73 1016.1
20260501234517 38 321 9.0 12.0 0.00 0.01 0.01 73 1016.0
20260501234504 38 298 9.0 13.0 0.00 0.01 0.01 73 1015.6
20260501234018 38 310 6.0 10.0 0.00 0.01 0.01 72 1016.0
20260501233018 38 310 8.0 11.0 0.00 0.01 0.01 71 1016.0
20260501233004 38 294 8.0 12.0 0.00 0.01 0.01 71 1015.4
20260501232517 38 306 6.0 10.0 0.00 0.01 0.01 75 1016.0
20260501232018 38 299 6.0 10.0 0.00 0.01 0.01 72 1016.0
20260501231518 38 319 6.0 9.0 0.00 0.01 0.01 71 1016.0
20260501231503 38 309 6.0 9.0 0.00 0.01 0.01 70 1014.7
20260501231017 38 311 5.0 7.0 0.00 0.01 0.01 70 1015.9
20260501230518 38 312 5.0 8.0 0.00 0.01 0.01 69 1015.9
20260501230006 38 315 4.0 9.0 0.00 0.01 0.01 69 1014.6
20260501225518 38 311 5.0 8.0 0.00 0.01 0.01 68 1015.9
20260501225017 38 306 5.0 7.0 0.00 0.01 0.01 68 1015.9
20260501224509 38 302 3.0 8.0 0.00 0.01 0.01 67 1014.6
20260501224018 38 310 5.0 7.0 0.00 0.01 0.01 66 1015.9
20260501223518 38 302 4.0 6.0 0.00 0.01 0.01 66 1015.8
20260501223051 38 325 4.0 7.0 0.00 0.01 0.01 64 1015.8
20260501223007 38 304 4.0 8.0 0.00 0.01 0.01 64 1014.6
20260501222540 39 303 4.0 7.0 0.00 0.01 0.01 65 1015.8
20260501222018 39 295 5.0 7.0 0.00 0.01 0.01 65 1015.7
20260501221540 38 321 5.0 7.0 0.00 0.01 0.01 66 1015.7
20260501221503 38 315 4.0 8.0 0.00 0.01 0.01 65 1014.7
20260501221018 38 304 6.0 7.0 0.00 0.01 0.01 65 1015.7
20260501220540 39 311 5.0 8.0 0.00 0.01 0.01 67 1015.7
20260501220040 39 296 5.0 8.0 0.00 0.01 0.01 67 1015.7
20260501220005 39 315 4.0 9.0 0.00 0.01 0.01 66 1014.6
20260501215528 39 329 4.0 7.0 0.00 0.02 0.01 67 1015.7
20260501215040 39 289 5.0 7.0 0.00 0.02 0.01 66 1015.6
20260501214506 39 297 5.0 9.0 0.00 0.01 0.01 67 1014.8
20260501214018 38 315 5.0 10.0 0.00 0.02 0.01 69 1015.6
20260501213518 38 303 7.0 10.0 0.00 0.02 0.01 69 1015.6
20260501213010 38 312 7.0 11.0 0.00 0.01 0.01 71 1015.3
20260501212540 38 314 6.0 9.0 0.00 0.02 0.01 74 1015.5
20260501212018 38 307 7.0 10.0 0.00 0.02 0.01 72 1015.5
20260501211518 38 317 8.0 10.0 0.00 0.02 0.01 73 1015.5
20260501211503 38 311 8.0 11.0 0.00 0.01 0.01 73 1015.2
20260501211017 38 294 7.0 11.0 0.00 0.02 0.01 75 1015.4
20260501210040 38 302 6.0 12.0 0.00 0.02 0.01 76 1015.4
20260501210006 38 301 7.0 13.0 0.00 0.02 0.01 75 1014.7
20260501205540 38 309 8.0 14.0 0.00 0.03 0.01 75 1015.4
20260501205018 38 310 9.0 15.0 0.00 0.03 0.01 76 1015.2
20260501204518 38 297 9.0 15.0 0.00 0.03 0.01 76 1015.2
20260501204506 38 321 10.0 16.0 0.00 0.02 0.01 75 1014.3
20260501204018 38 328 11.0 16.0 0.00 0.03 0.01 73 1015.2
20260501203540 38 324 10.0 16.0 0.00 0.03 0.01 72 1015.2
20260501203017 39 298 12.0 17.0 0.00 0.03 0.01 73 1015.2
20260501203007 39 322 12.0 18.0 0.00 0.03 0.01 72 1013.9
20260501202518 39 313 13.0 17.0 0.00 0.03 0.01 71 1015.2
20260501202040 39 309 12.0 18.0 0.00 0.03 0.01 70 1015.2
20260501201552 39 329 11.0 19.0 0.00 0.03 0.01 70 1015.2
20260501201514 39 311 11.0 21.0 0.00 0.03 0.01 70 1014.0
20260501201018 40 309 14.0 22.0 0.00 0.03 0.01 63 1015.0
20260501200540 40 289 14.0 22.0 0.00 0.03 0.01 64 1015.0
20260501200018 40 313 15.0 21.0 0.00 0.03 0.01 65 1014.9
20260501200002 40 322 16.0 22.0 0.00 0.03 0.01 62 1013.9
20260501195518 41 302 15.0 22.0 0.00 0.03 0.01 62 1014.9
20260501195040 40 290 16.0 22.0 0.00 0.03 0.01 61 1014.9
20260501194510 40 299 13.0 21.0 0.00 0.03 0.01 57 1014.1
20260501193540 40 307 14.0 19.0 0.00 0.03 0.01 62 1014.9
20260501193018 40 298 14.0 19.0 0.00 0.03 0.01 63 1015.0
20260501192018 40 302 16.0 20.0 0.00 0.03 0.01 63 1014.9
20260501191540 40 318 15.0 20.0 0.00 0.03 0.01 66 1015.0
20260501191520 39 302 15.0 21.0 0.00 0.03 0.01 65 1014.1
20260501191018 39 315 13.0 18.0 0.00 0.03 0.01 69 1015.0
20260501190518 39 286 12.0 16.0 0.00 0.03 0.01 70 1015.0
20260501190040 39 317 13.0 18.0 0.00 0.03 0.01 69 1015.0
20260501190016 39 318 14.0 19.0 0.00 0.03 0.01 68 1014.2
20260501185518 39 298 14.0 18.0 0.00 0.03 0.01 70 1014.9
20260501185018 39 275 11.0 17.0 0.00 0.03 0.01 70 1014.9
20260501184540 39 314 13.0 17.0 0.00 0.03 0.01 68 1014.9
20260501184518 39 303 14.0 18.0 0.00 0.03 0.01 66 1014.6
20260501184052 40 286 11.0 15.0 0.00 0.03 0.01 69 1015.0
20260501183040 39 316 10.0 15.0 0.00 0.03 0.01 71 1014.9
20260501183006 39 307 10.0 18.0 0.00 0.03 0.01 71 1014.0
20260501182518 39 303 9.0 17.0 0.00 0.03 0.01 72 1014.9
20260501181518 39 292 10.0 15.0 0.00 0.03 0.01 71 1014.8
20260501181506 39 303 11.0 16.0 0.00 0.03 0.01 70 1013.7
20260501181018 39 311 11.0 14.0 0.00 0.03 0.01 71 1014.9
20260501180040 39 295 11.0 15.0 0.00 0.03 0.01 69 1014.9
20260501180022 39 299 11.0 16.0 0.00 0.03 0.01 69 1013.8
20260501175518 38 298 10.0 15.0 0.00 0.03 0.01 68 1014.9
20260501175018 39 280 11.0 15.0 0.00 0.03 0.01 70 1014.9
20260501174522 38 297 11.0 17.0 0.00 0.03 0.01 69 1013.8
20260501174518 38 306 10.0 16.0 0.00 0.03 0.01 70 1014.9
20260501174040 38 296 11.0 16.0 0.00 0.03 0.01 68 1014.9
20260501173518 39 310 10.0 15.0 0.00 0.03 0.01 67 1015.0
20260501173022 39 291 13.0 17.0 0.00 0.03 0.01 66 1013.9
20260501173018 39 308 12.0 16.0 0.00 0.03 0.01 67 1014.9
20260501172518 39 316 10.0 15.0 0.00 0.03 0.01 70 1014.9
20260501172040 39 275 11.0 16.0 0.00 0.03 0.01 70 1015.0